Simultaneous Nadir Overpasses (SNOs) Predictions

Prediction of SNOs between GOES-15 and TERRA Satellite Orbit:

Table of predicted SNOs for the next 14.0 days since TLE Epoch: 7/9/2022
Index Date Time (GOES-15) GOES-15 Lat,Lon TERRA Lat,Lon Distance(km) Time Diff (sec)
1 07/10/2022 18:35:55 -0.11,-128.46 -0.84,-124.94 399.91 80
2 07/11/2022 06:59:58 0.07,-128.42 -0.26,-130.13 194.08 80
3 07/13/2022 06:45:01 0.08,-128.39 0.32,-127.16 139.23 80
4 07/13/2022 19:08:54 -0.05,-128.42 0.79,-132.32 443.74 80
5 07/15/2022 06:32:45 0.10,-128.36 0.97,-124.21 472.18 80
6 07/15/2022 18:56:39 -0.06,-128.39 0.14,-129.36 110.64 80
7 07/17/2022 18:41:43 -0.07,-128.36 -0.52,-126.41 222.55 80
8 07/18/2022 07:05:44 0.03,-128.32 -0.64,-131.59 370.80 80
9 07/20/2022 06:53:27 0.04,-128.29 -0.04,-128.62 37.62 80
10 07/22/2022 06:38:30 0.05,-128.25 0.57,-125.65 295.13 80
11 07/22/2022 19:02:24 -0.01,-128.27 0.53,-130.81 288.56 80
